ARKTIKA-M 1

Last updated on Tue Jul 01 2025 00:02:22 GMT+0000 (Coordinated Universal Time)

1 47719U 21016A 25181.09123837 -.00000025 00000+0 00000+0 0 9994 2 47719 63.1491 106.0261 7117573 268.6732 16.4686 2.00623845 31729
UTC large
Height (km)
Speed (km/s)
/
Latitude / Longitude
Inclination (degrees)
Orbital Period (minutes)
Azimuth
Elevation
Range (km)
Doppler Factor

Next 0 passes for location: London (51.5072 / 0.1276)

Sorry there are no passes over London.